TimeEST,TemperatureF,Dew PointF,Humidity,Sea Level PressureIn,VisibilityMPH,Wind Direction,Wind SpeedMPH,Gust SpeedMPH,PrecipitationIn,Events,Conditions,WindDirDegrees,DateUTC
12:51 AM,41.0,34.0,76,30.04,10.0,SSE,11.5,-,0.00,,Overcast,160,2013-02-11 05:51:00
1:51 AM,44.1,35.1,71,29.98,10.0,SE,10.4,-,N/A,,Overcast,140,2013-02-11 06:51:00
2:51 AM,45.0,37.0,74,29.97,10.0,SSE,10.4,-,N/A,,Overcast,160,2013-02-11 07:51:00
3:51 AM,46.0,37.9,73,29.96,10.0,South,10.4,-,0.00,Rain,Light Rain,180,2013-02-11 08:51:00
4:51 AM,46.0,37.9,73,29.95,10.0,SSE,8.1,-,0.00,,Overcast,160,2013-02-11 09:51:00
5:51 AM,46.0,39.0,76,29.95,10.0,SSE,6.9,-,N/A,,Overcast,160,2013-02-11 10:51:00
6:51 AM,46.9,39.9,77,29.93,10.0,SSE,5.8,-,0.00,,Overcast,150,2013-02-11 11:51:00
7:51 AM,46.0,41.0,83,29.93,3.0,South,5.8,-,0.02,Rain,Heavy Rain,170,2013-02-11 12:51:00
7:55 AM,46.4,42.8,87,29.89,1.8,SSE,8.1,-,0.04,Rain,Heavy Rain,160,2013-02-11 12:55:00
8:02 AM,46.4,42.8,87,29.89,3.0,SSE,6.9,-,0.07,Rain,Light Rain,160,2013-02-11 13:02:00
8:51 AM,46.0,44.1,93,29.94,10.0,Calm,Calm,-,0.08,,Overcast,0,2013-02-11 13:51:00
9:37 AM,51.8,44.6,76,29.89,10.0,South,4.6,-,0.00,,Mostly Cloudy,180,2013-02-11 14:37:00
9:51 AM,53.1,46.0,77,29.91,10.0,SSW,9.2,-,0.00,,Overcast,210,2013-02-11 14:51:00
10:51 AM,55.9,45.0,67,29.89,10.0,WSW,18.4,31.1,N/A,,Overcast,250,2013-02-11 15:51:00
11:51 AM,57.0,44.1,62,29.86,10.0,WSW,10.4,-,N/A,,Overcast,240,2013-02-11 16:51:00
12:51 PM,59.0,44.1,58,29.83,10.0,West,11.5,-,N/A,,Partly Cloudy,260,2013-02-11 17:51:00
1:51 PM,60.1,41.0,49,29.80,10.0,WSW,11.5,18.4,N/A,,Partly Cloudy,240,2013-02-11 18:51:00
2:51 PM,59.0,28.9,32,29.79,10.0,SW,26.5,38.0,N/A,,Clear,230,2013-02-11 19:51:00
3:51 PM,57.9,27.0,31,29.80,10.0,SW,15.0,23.0,N/A,,Clear,230,2013-02-11 20:51:00
4:51 PM,54.0,23.0,30,29.80,10.0,WSW,16.1,24.2,N/A,,Clear,240,2013-02-11 21:51:00
5:51 PM,53.1,19.9,27,29.81,10.0,West,11.5,19.6,N/A,,Clear,260,2013-02-11 22:51:00
6:51 PM,50.0,21.9,33,29.83,10.0,WSW,9.2,-,N/A,,Clear,250,2013-02-11 23:51:00
7:51 PM,50.0,17.1,27,29.88,10.0,West,18.4,31.1,N/A,,Clear,280,2013-02-12 00:51:00
8:51 PM,46.9,19.9,34,29.90,10.0,West,15.0,23.0,N/A,,Clear,280,2013-02-12 01:51:00
9:51 PM,44.1,21.9,42,29.93,10.0,West,17.3,28.8,N/A,,Clear,280,2013-02-12 02:51:00
10:51 PM,42.1,24.1,49,29.95,10.0,West,18.4,34.5,N/A,,Scattered Clouds,280,2013-02-12 03:51:00
11:51 PM,41.0,24.1,51,29.97,10.0,West,11.5,26.5,N/A,,Overcast,280,2013-02-12 04:51:00